When you browse on this site, cookies collect data to enhance your experience and personalize the content and advertising you see.
Visit our Privacy Policy to learn more. By continuing to use the site, you agree to this use of cookies and data.
  • In Sweden
  • List of Countries
  • For 7 days
  • Water Temperature
  • Weather Map
  • Weather Widgets
  • user-avatar
    Login

    Hourly Weather Førde

    Today, 27 May, Wednesday

    Time Temperature Precipitation Wind Pressure Humidity
    00:00 +4°C° 0 mm 2 mps 720 mmHg 94%
    01:00 +4°C° 0.2 mm 2 mps 720 mmHg 94%
    02:00 +3°C° 0.2 mm 2 mps 720 mmHg 94%
    03:00 +3°C° 0.2 mm 2 mps 719 mmHg 94%
    04:00 +3°C° 0.3 mm 3 mps 719 mmHg 92%
    05:00 +3°C° 0.3 mm 3 mps 719 mmHg 90%
    06:00 +4°C° 0.3 mm 3 mps 719 mmHg 88%
    07:00 +4°C° 0.5 mm 3 mps 720 mmHg 86%
    08:00 +5°C° 0.5 mm 3 mps 720 mmHg 85%
    09:00 +5°C° 0.5 mm 3 mps 720 mmHg 83%
    10:00 +5°C° 0.5 mm 3 mps 720 mmHg 82%
    11:00 +5°C° 0.5 mm 3 mps 720 mmHg 81%
    12:00 +5°C° 0.5 mm 3 mps 720 mmHg 80%
    13:00 +5°C° 0.2 mm 3 mps 720 mmHg 79%
    14:00 +5°C° 0.2 mm 3 mps 720 mmHg 78%
    15:00 +5°C° 0.2 mm 3 mps 721 mmHg 77%
    16:00 +6°C° 0.1 mm 2 mps 721 mmHg 78%
    17:00 +6°C° 0.1 mm 2 mps 721 mmHg 78%
    18:00 +6°C° 0.1 mm 2 mps 721 mmHg 79%
    19:00 +6°C° 0.1 mm 1 mps 721 mmHg 82%
    20:00 +5°C° 0.1 mm 1 mps 721 mmHg 85%
    21:00 +4°C° 0.1 mm 1 mps 721 mmHg 88%
    22:00 +4°C° 0 mm 1 mps 721 mmHg 88%
    23:00 +4°C° 0 mm 1 mps 721 mmHg 87%

    Tomorrow, 28 May, Thursday

    Time Temperature Precipitation Wind Pressure Humidity
    00:00 +4°C° 0 mm 1 mps 722 mmHg 87%
    01:00 +4°C° 0 mm 1 mps 721 mmHg 87%
    02:00 +4°C° 0 mm 1 mps 721 mmHg 88%
    03:00 +3°C° 0 mm 1 mps 721 mmHg 88%
    04:00 +4°C° 0 mm 1 mps 721 mmHg 86%
    05:00 +4°C° 0 mm 0 mps 721 mmHg 84%
    06:00 +4°C° 0 mm 0 mps 721 mmHg 83%
    07:00 +5°C° 0.1 mm 0 mps 721 mmHg 79%
    08:00 +7°C° 0.1 mm 1 mps 721 mmHg 75%
    09:00 +8°C° 0.1 mm 1 mps 721 mmHg 71%
    10:00 +8°C° 0 mm 1 mps 721 mmHg 69%
    11:00 +9°C° 0 mm 1 mps 721 mmHg 66%
    12:00 +9°C° 0 mm 1 mps 721 mmHg 64%
    13:00 +9°C° 0 mm 1 mps 721 mmHg 63%
    14:00 +9°C° 0 mm 1 mps 721 mmHg 62%
    15:00 +9°C° 0 mm 1 mps 721 mmHg 61%
    16:00 +9°C° 0 mm 1 mps 721 mmHg 62%
    17:00 +9°C° 0 mm 1 mps 721 mmHg 63%
    18:00 +9°C° 0 mm 1 mps 720 mmHg 65%
    19:00 +7°C° 0 mm 1 mps 720 mmHg 71%
    20:00 +6°C° 0 mm 1 mps 720 mmHg 77%
    21:00 +4°C° 0 mm 1 mps 720 mmHg 84%
    22:00 +3°C° 0 mm 0 mps 720 mmHg 84%
    23:00 +3°C° 0 mm 0 mps 720 mmHg 84%

    Day after tomorrow, 29 May, Friday

    Time Temperature Precipitation Wind Pressure Humidity
    00:00 +3°C° 0 mm 0 mps 720 mmHg 85%
    01:00 +3°C° 0 mm 0 mps 720 mmHg 84%
    02:00 +4°C° 0 mm 1 mps 719 mmHg 84%
    03:00 +4°C° 0 mm 1 mps 719 mmHg 83%
    04:00 +5°C° 0 mm 1 mps 720 mmHg 78%
    05:00 +6°C° 0 mm 0 mps 720 mmHg 72%
    06:00 +7°C° 0 mm 0 mps 720 mmHg 67%
    07:00 +9°C° 0 mm 0 mps 720 mmHg 63%
    08:00 +10°C° 0 mm 0 mps 720 mmHg 58%
    09:00 +11°C° 0 mm 0 mps 720 mmHg 54%
    10:00 +13°C° 0 mm 1 mps 720 mmHg 52%
    11:00 +13°C° 0 mm 1 mps 720 mmHg 50%
    12:00 +14°C° 0 mm 1 mps 720 mmHg 48%
    13:00 +14°C° 0 mm 1 mps 720 mmHg 49%
    14:00 +14°C° 0 mm 1 mps 720 mmHg 50%
    15:00 +14°C° 0 mm 1 mps 720 mmHg 51%
    16:00 +14°C° 0 mm 1 mps 720 mmHg 54%
    17:00 +13°C° 0 mm 1 mps 719 mmHg 58%
    18:00 +13°C° 0 mm 1 mps 719 mmHg 61%
    19:00 +11°C° 0 mm 1 mps 719 mmHg 66%
    20:00 +10°C° 0 mm 1 mps 719 mmHg 72%
    21:00 +8°C° 0 mm 1 mps 719 mmHg 77%
    22:00 +8°C° 0 mm 1 mps 719 mmHg 76%
    23:00 +8°C° 0 mm 1 mps 719 mmHg 76%

    30 May, Saturday

    Time Temperature Precipitation Wind Pressure Humidity
    00:00 +8°C° 0 mm 1 mps 719 mmHg 75%
    01:00 +8°C° 0 mm 1 mps 719 mmHg 74%
    02:00 +8°C° 0 mm 1 mps 719 mmHg 72%
    03:00 +8°C° 0 mm 1 mps 719 mmHg 71%
    04:00 +10°C° 0 mm 1 mps 719 mmHg 66%
    05:00 +11°C° 0 mm 1 mps 720 mmHg 60%
    06:00 +13°C° 0 mm 1 mps 720 mmHg 55%
    07:00 +14°C° 0 mm 1 mps 720 mmHg 51%
    08:00 +16°C° 0 mm 1 mps 720 mmHg 48%
    09:00 +18°C° 0 mm 1 mps 720 mmHg 45%
    10:00 +18°C° 0 mm 1 mps 720 mmHg 44%
    11:00 +19°C° 0 mm 1 mps 720 mmHg 43%
    12:00 +19°C° 0 mm 1 mps 720 mmHg 42%
    13:00 +19°C° 0 mm 1 mps 720 mmHg 43%
    14:00 +19°C° 0 mm 1 mps 720 mmHg 44%
    15:00 +18°C° 0 mm 2 mps 720 mmHg 45%
    16:00 +18°C° 0 mm 1 mps 720 mmHg 48%
    17:00 +16°C° 0 mm 1 mps 720 mmHg 51%
    18:00 +16°C° 0 mm 1 mps 719 mmHg 53%
    19:00 +14°C° 0 mm 1 mps 719 mmHg 59%
    20:00 +12°C° 0 mm 1 mps 719 mmHg 65%
    21:00 +10°C° 0 mm 0 mps 719 mmHg 71%
    22:00 +9°C° 0 mm 0 mps 719 mmHg 72%
    23:00 +9°C° 0 mm 0 mps 719 mmHg 72%

    31 May, Sunday

    Time Temperature Precipitation Wind Pressure Humidity
    00:00 +9°C° 0 mm 0 mps 719 mmHg 72%
    01:00 +9°C° 0 mm 0 mps 719 mmHg 73%
    02:00 +9°C° 0 mm 0 mps 719 mmHg 73%
    03:00 +8°C° 0 mm 0 mps 719 mmHg 74%
    04:00 +10°C° 0 mm 0 mps 719 mmHg 69%
    05:00 +12°C° 0 mm 0 mps 719 mmHg 63%
    06:00 +13°C° 0 mm 0 mps 720 mmHg 58%
    07:00 +14°C° 0 mm 0 mps 720 mmHg 55%
    08:00 +16°C° 0 mm 1 mps 720 mmHg 52%
    09:00 +18°C° 0 mm 1 mps 720 mmHg 49%
    10:00 +18°C° 0 mm 1 mps 720 mmHg 49%
    11:00 +17°C° 0 mm 2 mps 720 mmHg 49%
    12:00 +17°C° 0 mm 2 mps 720 mmHg 48%
    13:00 +17°C° 0 mm 2 mps 719 mmHg 49%
    14:00 +17°C° 0 mm 2 mps 719 mmHg 49%
    15:00 +18°C° 0 mm 1 mps 719 mmHg 49%
    16:00 +16°C° 0 mm 1 mps 719 mmHg 51%
    17:00 +16°C° 0 mm 1 mps 719 mmHg 53%
    18:00 +15°C° 0 mm 1 mps 719 mmHg 55%
    19:00 +14°C° 0 mm 1 mps 718 mmHg 60%
    20:00 +12°C° 0 mm 1 mps 718 mmHg 65%
    21:00 +10°C° 0 mm 0 mps 718 mmHg 70%
    22:00 +10°C° 0 mm 0 mps 718 mmHg 70%
    23:00 +10°C° 0 mm 0 mps 718 mmHg 70%

    1 June, Monday

    Time Temperature Precipitation Wind Pressure Humidity
    00:00 +10°C° 0 mm 0 mps 718 mmHg 70%
    01:00 +10°C° 0 mm 0 mps 717 mmHg 70%
    02:00 +10°C° 0 mm 0 mps 717 mmHg 70%
    03:00 +10°C° 0 mm 0 mps 717 mmHg 71%
    04:00 +10°C° 0.1 mm 0 mps 716 mmHg 71%
    05:00 +10°C° 0.1 mm 0 mps 716 mmHg 72%
    06:00 +11°C° 0.1 mm 1 mps 716 mmHg 73%
    07:00 +11°C° 0.4 mm 1 mps 716 mmHg 74%
    08:00 +12°C° 0.4 mm 1 mps 716 mmHg 76%
    09:00 +12°C° 0.4 mm 2 mps 716 mmHg 78%
    10:00 +13°C° 0.2 mm 1 mps 717 mmHg 70%
    11:00 +15°C° 0.2 mm 1 mps 717 mmHg 62%
    12:00 +16°C° 0.2 mm 1 mps 717 mmHg 55%
    13:00 +16°C° 0.1 mm 1 mps 717 mmHg 54%
    14:00 +16°C° 0.1 mm 1 mps 717 mmHg 54%
    15:00 +16°C° 0.1 mm 1 mps 716 mmHg 53%
    16:00 +16°C° 0 mm 1 mps 716 mmHg 53%
    17:00 +16°C° 0 mm 1 mps 716 mmHg 54%
    18:00 +16°C° 0 mm 1 mps 716 mmHg 55%
    19:00 +13°C° 0 mm 0 mps 716 mmHg 61%
    20:00 +11°C° 0 mm 0 mps 716 mmHg 67%
    21:00 +10°C° 0 mm 0 mps 716 mmHg 73%
    22:00 +9°C° 0 mm 0 mps 715 mmHg 74%
    23:00 +9°C° 0 mm 0 mps 715 mmHg 76%
    Show more